Terminal Aerodrome Forecast
Issued by NWS Portland, OR

Home | Current Version | Previous Version | Text Only | Print | Product List | Glossary On
Versions: 1 2 3 4 5 6 7 8 9 10 11 12 13 14 15 16 17 18 19 20 21 22 23 24 25 26 27 28 29 30 31 32 33 34 35 36 37 38 39 40 41 42 43 44 45 46 47 48 49 50
000
FTUS46 KPQR 262323
TAFPDX
TAF
KPDX 262323Z 2700/2724 08008KT P6SM SCT002 SCT200
     FM270200 VRB03KT 2SM BR SCT008 SCT200
     FM270900 00000KT 1/2SM FG OVC005
     FM271700 22003KT 5SM BR SCT009 BKN100
     FM272000 25003KT P6SM SCT015 OVC050=

USA.gov is the U.S. government's official web portal to all federal, state and local government web resources and services.